| time (UTC) | temp F | wind direction | speed knots | gust knots | rain 1hr in | rain 24hr in | rain mn in | humidity % | barometer mb |
| 20260506182557 | 55 | 145 | 13.0 | 20.9 | 0.00 | 0.00 | 0.00 | 88 | 1010.1 |
| 20260506182108 | 55 | 173 | 11.3 | 20.9 | 0.00 | 0.00 | 0.00 | 88 | 1010.1 |
| 20260506181559 | 55 | 169 | 12.2 | 20.9 | 0.00 | 0.00 | 0.00 | 87 | 1010.3 |
| 20260506181058 | 55 | 167 | 11.3 | 17.4 | 0.00 | 0.00 | 0.00 | 87 | 1010.3 |
| 20260506180558 | 55 | 146 | 11.3 | 17.4 | 0.00 | 0.00 | 0.00 | 87 | 1010.3 |
| 20260506180058 | 55 | 167 | 12.2 | 17.4 | 0.00 | 0.00 | 0.00 | 87 | 1010.2 |
| 20260506175558 | 55 | 160 | 10.4 | 20.0 | 0.00 | 0.00 | 0.00 | 87 | 1010.3 |
| 20260506175058 | 55 | 159 | 11.3 | 20.0 | 0.00 | 0.00 | 0.00 | 87 | 1010.5 |
| 20260506174607 | 55 | 159 | 10.4 | 22.6 | 0.00 | 0.00 | 0.00 | 87 | 1010.7 |
| 20260506174101 | 55 | 164 | 12.2 | 22.6 | 0.00 | 0.00 | 0.00 | 87 | 1010.9 |
| 20260506173558 | 55 | 165 | 12.2 | 22.6 | 0.00 | 0.00 | 0.00 | 86 | 1010.8 |
| 20260506173126 | 56 | 175 | 13.0 | 20.0 | 0.00 | 0.00 | 0.00 | 86 | 1011.0 |
| 20260506172557 | 56 | 186 | 13.9 | 20.9 | 0.00 | 0.00 | 0.00 | 85 | 1011.0 |
| 20260506172058 | 56 | 161 | 12.2 | 20.9 | 0.00 | 0.00 | 0.00 | 84 | 1011.1 |
| 20260506171601 | 56 | 173 | 13.0 | 20.0 | 0.00 | 0.00 | 0.00 | 84 | 1011.0 |
| 20260506171058 | 56 | 157 | 13.9 | 27.8 | 0.00 | 0.00 | 0.00 | 84 | 1010.9 |
| 20260506170559 | 56 | 166 | 15.6 | 27.8 | 0.00 | 0.00 | 0.00 | 85 | 1010.8 |
| 20260506170056 | 56 | 144 | 16.5 | 24.3 | 0.00 | 0.00 | 0.00 | 85 | 1010.9 |
| 20260506165557 | 56 | 172 | 17.4 | 24.3 | 0.00 | 0.00 | 0.00 | 85 | 1011.0 |
| 20260506165058 | 56 | 167 | 15.6 | 23.5 | 0.00 | 0.00 | 0.00 | 85 | 1010.9 |
| 20260506164558 | 56 | 154 | 15.6 | 23.5 | 0.00 | 0.00 | 0.00 | 84 | 1011.1 |
| 20260506164057 | 56 | 156 | 14.8 | 23.5 | 0.00 | 0.00 | 0.00 | 85 | 1011.2 |
| 20260506163558 | 56 | 149 | 15.6 | 23.5 | 0.00 | 0.00 | 0.00 | 85 | 1011.4 |
| 20260506163102 | 56 | 156 | 13.9 | 23.5 | 0.00 | 0.00 | 0.00 | 85 | 1011.4 |
| 20260506162559 | 56 | 156 | 14.8 | 20.9 | 0.00 | 0.00 | 0.00 | 85 | 1011.3 |
| 20260506162101 | 56 | 167 | 13.9 | 20.9 | 0.00 | 0.00 | 0.00 | 85 | 1011.4 |
| 20260506161609 | 56 | 198 | 13.9 | 21.7 | 0.00 | 0.00 | 0.00 | 85 | 1011.4 |
| 20260506161058 | 56 | 175 | 13.0 | 22.6 | 0.00 | 0.00 | 0.00 | 85 | 1011.5 |
| 20260506160558 | 56 | 164 | 13.9 | 22.6 | 0.00 | 0.00 | 0.00 | 84 | 1011.6 |
| 20260506160105 | 57 | 174 | 15.6 | 22.6 | 0.00 | 0.00 | 0.00 | 84 | 1011.7 |
| 20260506155558 | 57 | 167 | 14.8 | 22.6 | 0.00 | 0.00 | 0.00 | 83 | 1011.9 |
| 20260506155058 | 57 | 164 | 14.8 | 22.6 | 0.00 | 0.00 | 0.00 | 83 | 1012.1 |
| 20260506154601 | 57 | 152 | 13.9 | 20.9 | 0.00 | 0.00 | 0.00 | 82 | 1012.1 |
| 20260506154058 | 57 | 173 | 13.0 | 20.0 | 0.00 | 0.00 | 0.00 | 83 | 1012.2 |
| 20260506153558 | 57 | 166 | 13.9 | 21.7 | 0.00 | 0.00 | 0.00 | 83 | 1012.2 |
| 20260506153058 | 57 | 169 | 12.2 | 21.7 | 0.00 | 0.00 | 0.00 | 84 | 1012.1 |
| 20260506152557 | 56 | 152 | 12.2 | 19.1 | 0.00 | 0.00 | 0.00 | 84 | 1012.1 |
| 20260506152058 | 56 | 175 | 10.4 | 18.2 | 0.00 | 0.00 | 0.00 | 84 | 1012.1 |
| 20260506151640 | 56 | 165 | 9.6 | 15.6 | 0.00 | 0.00 | 0.00 | 84 | 1012.3 |
| 20260506151059 | 56 | 196 | 8.7 | 15.6 | 0.00 | 0.00 | 0.00 | 84 | 1012.3 |
| 20260506150601 | 56 | 182 | 9.6 | 16.5 | 0.00 | 0.00 | 0.00 | 84 | 1012.3 |
| 20260506150109 | 57 | 165 | 9.6 | 16.5 | 0.00 | 0.00 | 0.00 | 83 | 1012.3 |
| 20260506145559 | 57 | 178 | 9.6 | 17.4 | 0.00 | 0.00 | 0.00 | 83 | 1012.4 |
| 20260506145058 | 57 | 157 | 10.4 | 19.1 | 0.00 | 0.00 | 0.00 | 82 | 1012.3 |
| 20260506144614 | 58 | 201 | 9.6 | 19.1 | 0.00 | 0.00 | 0.00 | 82 | 1012.3 |
| 20260506144058 | 58 | 163 | 9.6 | 21.7 | 0.00 | 0.00 | 0.00 | 82 | 1012.3 |
| 20260506143559 | 58 | 162 | 10.4 | 21.7 | 0.00 | 0.00 | 0.00 | 83 | 1012.2 |
| 20260506143110 | 58 | 169 | 10.4 | 21.7 | 0.00 | 0.00 | 0.00 | 82 | 1012.3 |
| 20260506142557 | 58 | 179 | 10.4 | 21.7 | 0.00 | 0.00 | 0.00 | 83 | 1012.3 |
| 20260506142057 | 57 | 193 | 9.6 | 21.7 | 0.00 | 0.00 | 0.00 | 84 | 1012.4 |
| 20260506141609 | 57 | 179 | 9.6 | 20.0 | 0.00 | 0.00 | 0.00 | 83 | 1012.4 |
| 20260506141058 | 57 | 165 | 12.2 | 20.0 | 0.00 | 0.00 | 0.00 | 84 | 1012.4 |
| 20260506140559 | 57 | 163 | 11.3 | 17.4 | 0.00 | 0.00 | 0.00 | 84 | 1012.4 |
| 20260506140127 | 57 | 156 | 9.6 | 19.1 | 0.00 | 0.00 | 0.00 | 84 | 1012.3 |
| 20260506135559 | 57 | 155 | 10.4 | 19.1 | 0.00 | 0.00 | 0.00 | 84 | 1012.4 |
| 20260506135101 | 56 | 162 | 10.4 | 19.1 | 0.00 | 0.00 | 0.00 | 84 | 1012.4 |
| 20260506134603 | 57 | 153 | 9.6 | 16.5 | 0.00 | 0.00 | 0.00 | 84 | 1012.3 |
| 20260506134058 | 56 | 177 | 7.8 | 16.5 | 0.00 | 0.00 | 0.00 | 84 | 1012.4 |
| 20260506133558 | 56 | 160 | 7.8 | 15.6 | 0.00 | 0.00 | 0.00 | 84 | 1012.4 |
| 20260506133133 | 56 | 182 | 7.0 | 14.8 | 0.00 | 0.00 | 0.00 | 85 | 1012.4 |
| 20260506132558 | 56 | 181 | 9.6 | 14.8 | 0.00 | 0.00 | 0.00 | 85 | 1012.3 |
| 20260506132058 | 56 | 171 | 8.7 | 15.6 | 0.00 | 0.00 | 0.00 | 85 | 1012.4 |
| 20260506131558 | 56 | 169 | 9.6 | 15.6 | 0.00 | 0.00 | 0.00 | 85 | 1012.3 |
| 20260506131059 | 56 | 176 | 10.4 | 17.4 | 0.00 | 0.00 | 0.00 | 84 | 1012.4 |
| 20260506130558 | 57 | 196 | 9.6 | 17.4 | 0.00 | 0.00 | 0.00 | 84 | 1012.4 |
| 20260506130138 | 56 | 164 | 10.4 | 18.2 | 0.00 | 0.00 | 0.00 | 84 | 1012.5 |
| 20260506125558 | 56 | 160 | 8.7 | 20.0 | 0.00 | 0.00 | 0.00 | 85 | 1012.5 |
| 20260506125057 | 56 | 167 | 12.2 | 20.0 | 0.00 | 0.00 | 0.00 | 86 | 1012.5 |
| 20260506124556 | 56 | 161 | 13.0 | 20.0 | 0.00 | 0.00 | 0.00 | 85 | 1012.4 |
| 20260506124058 | 56 | 182 | 13.0 | 21.7 | 0.00 | 0.00 | 0.00 | 85 | 1012.5 |
| 20260506123558 | 56 | 157 | 11.3 | 21.7 | 0.00 | 0.00 | 0.00 | 85 | 1012.5 |
| 20260506123058 | 56 | 142 | 12.2 | 21.7 | 0.00 | 0.00 | 0.00 | 85 | 1012.5 |
| 20260506122559 | 56 | 175 | 10.4 | 20.0 | 0.00 | 0.00 | 0.00 | 86 | 1012.5 |
| 20260506122057 | 56 | 188 | 13.9 | 20.0 | 0.00 | 0.00 | 0.00 | 86 | 1012.4 |
| 20260506121600 | 55 | 151 | 12.2 | 19.1 | 0.00 | 0.00 | 0.00 | 86 | 1012.6 |
| 20260506121058 | 55 | 155 | 12.2 | 17.4 | 0.00 | 0.00 | 0.00 | 86 | 1012.4 |
| 20260506120600 | 55 | 181 | 9.6 | 17.4 | 0.00 | 0.00 | 0.00 | 86 | 1012.4 |
| 20260506120100 | 55 | 200 | 9.6 | 17.4 | 0.00 | 0.00 | 0.00 | 86 | 1012.4 |
| 20260506115557 | 55 | 173 | 8.7 | 16.5 | 0.00 | 0.00 | 0.00 | 86 | 1012.4 |
| 20260506115058 | 55 | 184 | 9.6 | 16.5 | 0.00 | 0.00 | 0.00 | 86 | 1012.4 |
| 20260506114601 | 55 | 186 | 7.8 | 13.0 | 0.00 | 0.00 | 0.00 | 86 | 1012.5 |
| 20260506114058 | 55 | 188 | 7.0 | 13.0 | 0.00 | 0.00 | 0.00 | 87 | 1012.7 |
| 20260506113557 | 55 | 181 | 5.2 | 11.3 | 0.00 | 0.00 | 0.00 | 87 | 1012.7 |
| 20260506113100 | 54 | 194 | 6.1 | 16.5 | 0.00 | 0.00 | 0.00 | 87 | 1012.7 |
| 20260506112559 | 54 | 200 | 4.3 | 16.5 | 0.00 | 0.00 | 0.00 | 87 | 1012.7 |
| 20260506112057 | 55 | 225 | 7.0 | 13.9 | 0.00 | 0.00 | 0.00 | 87 | 1012.7 |
| 20260506111601 | 55 | 179 | 7.0 | 11.3 | 0.00 | 0.00 | 0.00 | 87 | 1012.6 |
| 20260506111059 | 55 | 186 | 4.3 | 11.3 | 0.00 | 0.00 | 0.00 | 87 | 1012.6 |
| 20260506110558 | 55 | 157 | 7.0 | 12.2 | 0.00 | 0.00 | 0.00 | 87 | 1012.5 |
| 20260506110104 | 55 | 212 | 5.2 | 12.2 | 0.00 | 0.00 | 0.00 | 87 | 1012.5 |
| 20260506105558 | 55 | 169 | 4.3 | 12.2 | 0.00 | 0.00 | 0.00 | 87 | 1012.5 |
| 20260506105059 | 55 | 173 | 4.3 | 12.2 | 0.00 | 0.00 | 0.00 | 88 | 1012.6 |
| 20260506104605 | 54 | 193 | 6.1 | 13.0 | 0.00 | 0.00 | 0.00 | 88 | 1012.5 |
| 20260506104058 | 54 | 165 | 6.1 | 13.0 | 0.00 | 0.00 | 0.00 | 88 | 1012.5 |
| 20260506103558 | 54 | 179 | 5.2 | 15.6 | 0.00 | 0.00 | 0.00 | 88 | 1012.5 |
| 20260506103106 | 54 | 193 | 7.0 | 15.6 | 0.00 | 0.00 | 0.00 | 88 | 1012.4 |
| 20260506102558 | 54 | 203 | 6.1 | 14.8 | 0.00 | 0.00 | 0.00 | 88 | 1012.5 |
| 20260506102101 | 54 | 184 | 6.1 | 14.8 | 0.00 | 0.00 | 0.00 | 88 | 1012.4 |
| 20260506101600 | 54 | 169 | 8.7 | 14.8 | 0.00 | 0.00 | 0.00 | 88 | 1012.4 |
| 20260506101059 | 54 | 164 | 6.1 | 14.8 | 0.00 | 0.00 | 0.00 | 88 | 1012.3 |
| 20260506100557 | 54 | 180 | 7.0 | 14.8 | 0.00 | 0.00 | 0.00 | 88 | 1012.2 |
| 20260506100110 | 54 | 192 | 6.1 | 13.9 | 0.00 | 0.00 | 0.00 | 88 | 1012.3 |
| 20260506095558 | 54 | 189 | 7.8 | 13.9 | 0.00 | 0.00 | 0.00 | 88 | 1012.3 |
| 20260506095059 | 54 | 179 | 6.1 | 13.0 | 0.00 | 0.00 | 0.00 | 89 | 1012.2 |
| 20260506094606 | 54 | 193 | 7.0 | 11.3 | 0.00 | 0.00 | 0.00 | 89 | 1012.2 |
| 20260506094058 | 54 | 136 | 6.1 | 13.0 | 0.00 | 0.00 | 0.00 | 89 | 1012.2 |
| 20260506093558 | 54 | 145 | 7.0 | 13.0 | 0.00 | 0.00 | 0.00 | 89 | 1012.3 |
| 20260506093056 | 54 | 163 | 5.2 | 12.2 | 0.00 | 0.00 | 0.00 | 89 | 1012.4 |
| 20260506092558 | 54 | 175 | 2.6 | 10.4 | 0.00 | 0.00 | 0.00 | 89 | 1012.4 |
| 20260506092058 | 54 | 194 | 4.3 | 10.4 | 0.00 | 0.00 | 0.00 | 89 | 1012.5 |
| 20260506091608 | 54 | 204 | 3.5 | 8.7 | 0.00 | 0.00 | 0.00 | 89 | 1012.5 |
| 20260506091057 | 54 | 194 | 2.6 | 9.6 | 0.00 | 0.00 | 0.00 | 89 | 1012.5 |
| 20260506090557 | 54 | 185 | 3.5 | 9.6 | 0.00 | 0.00 | 0.00 | 89 | 1012.6 |
| 20260506090056 | 54 | 196 | 1.7 | 8.7 | 0.00 | 0.00 | 0.00 | 89 | 1012.7 |
| 20260506085557 | 54 | 180 | 2.6 | 11.3 | 0.00 | 0.00 | 0.00 | 89 | 1012.7 |
| 20260506085101 | 54 | 170 | 2.6 | 11.3 | 0.00 | 0.00 | 0.00 | 89 | 1012.7 |
| 20260506084600 | 54 | 206 | 1.7 | 8.7 | 0.00 | 0.00 | 0.00 | 89 | 1012.9 |
| 20260506084059 | 54 | 221 | 3.5 | 10.4 | 0.00 | 0.00 | 0.00 | 89 | 1012.9 |
| 20260506083558 | 54 | 177 | 1.7 | 10.4 | 0.00 | 0.00 | 0.00 | 89 | 1013.0 |
| 20260506083100 | 54 | 223 | 4.3 | 10.4 | 0.00 | 0.00 | 0.00 | 89 | 1013.0 |
| 20260506082558 | 54 | 224 | 3.5 | 10.4 | 0.00 | 0.00 | 0.00 | 88 | 1013.0 |
| 20260506082059 | 54 | 192 | 3.5 | 18.2 | 0.00 | 0.00 | 0.00 | 88 | 1013.0 |
| 20260506081608 | 54 | 196 | 6.1 | 18.2 | 0.00 | 0.00 | 0.00 | 88 | 1013.0 |
| 20260506081058 | 55 | 195 | 8.7 | 18.2 | 0.00 | 0.00 | 0.00 | 88 | 1013.0 |
| 20260506080558 | 55 | 169 | 8.7 | 16.5 | 0.00 | 0.00 | 0.00 | 88 | 1013.1 |
| 20260506073058 | 55 | 240 | 3.5 | 8.7 | 0.00 | 0.00 | 0.00 | 88 | 1013.2 |
| 20260506072557 | 55 | 206 | 2.6 | 8.7 | 0.00 | 0.00 | 0.00 | 87 | 1013.2 |
| 20260506072059 | 55 | 238 | 1.7 | 8.7 | 0.00 | 0.00 | 0.00 | 87 | 1013.1 |
| 20260506071557 | 55 | 184 | 3.5 | 8.7 | 0.00 | 0.00 | 0.00 | 87 | 1013.1 |
| 20260506071101 | 55 | 202 | 2.6 | 9.6 | 0.00 | 0.00 | 0.00 | 87 | 1013.0 |
| 20260506070558 | 55 | 197 | 2.6 | 9.6 | 0.00 | 0.00 | 0.00 | 87 | 1013.0 |
| 20260506062058 | 55 | 206 | 7.8 | 18.2 | 0.00 | 0.00 | 0.00 | 87 | 1012.9 |
| 20260506061556 | 55 | 177 | 8.7 | 17.4 | 0.00 | 0.00 | 0.00 | 87 | 1012.8 |
| 20260506061058 | 55 | 186 | 7.8 | 17.4 | 0.00 | 0.00 | 0.00 | 87 | 1012.9 |
| 20260506060557 | 55 | 152 | 7.8 | 17.4 | 0.00 | 0.00 | 0.00 | 87 | 1012.9 |
| 20260506051056 | 54 | 214 | 6.1 | 10.4 | 0.00 | 0.00 | 0.00 | 87 | 1013.4 |
| 20260506050556 | 54 | 192 | 4.3 | 11.3 | 0.00 | 0.00 | 0.00 | 87 | 1013.3 |
| 20260506045055 | 55 | 203 | 4.3 | 8.7 | 0.00 | 0.00 | 0.00 | 87 | 1013.5 |
| 20260506044603 | 55 | 0 | 0.9 | 10.4 | 0.00 | 0.00 | 0.00 | 87 | 1013.5 |
| 20260506044055 | 55 | 165 | 2.6 | 10.4 | 0.00 | 0.00 | 0.00 | 87 | 1013.5 |
| 20260506043556 | 55 | 177 | 4.3 | 10.4 | 0.00 | 0.00 | 0.00 | 87 | 1013.6 |
| 20260506043107 | 55 | 250 | 1.7 | 7.8 | 0.00 | 0.00 | 0.00 | 86 | 1013.5 |
| 20260506042556 | 55 | 250 | 3.5 | 10.4 | 0.00 | 0.00 | 0.00 | 86 | 1013.6 |
| 20260506042057 | 55 | 181 | 3.5 | 10.4 | 0.00 | 0.00 | 0.00 | 86 | 1013.6 |
| 20260506041606 | 55 | 173 | 4.3 | 10.4 | 0.00 | 0.00 | 0.00 | 86 | 1013.5 |
| 20260506041056 | 55 | 198 | 5.2 | 12.2 | 0.00 | 0.00 | 0.00 | 86 | 1013.6 |
| 20260506040556 | 55 | 167 | 6.1 | 12.2 | 0.00 | 0.00 | 0.00 | 86 | 1013.6 |
| 20260506040100 | 55 | 176 | 5.2 | 11.3 | 0.00 | 0.00 | 0.00 | 86 | 1013.5 |
| 20260506035556 | 55 | 181 | 4.3 | 12.2 | 0.00 | 0.00 | 0.00 | 86 | 1013.6 |
| 20260506035055 | 55 | 182 | 7.0 | 13.0 | 0.00 | 0.00 | 0.00 | 86 | 1013.6 |
| 20260506034614 | 55 | 187 | 6.1 | 13.0 | 0.00 | 0.00 | 0.00 | 86 | 1013.6 |
| 20260506034055 | 55 | 186 | 5.2 | 13.0 | 0.00 | 0.00 | 0.00 | 86 | 1013.6 |
| 20260506033555 | 55 | 168 | 5.2 | 13.0 | 0.00 | 0.00 | 0.00 | 86 | 1013.7 |
| 20260506033101 | 55 | 211 | 7.0 | 13.0 | 0.00 | 0.00 | 0.00 | 86 | 1013.7 |
| 20260506032556 | 55 | 210 | 5.2 | 12.2 | 0.00 | 0.00 | 0.00 | 86 | 1013.6 |
| 20260506032056 | 55 | 190 | 7.0 | 12.2 | 0.00 | 0.00 | 0.00 | 86 | 1013.6 |
| 20260506031604 | 55 | 191 | 6.1 | 11.3 | 0.00 | 0.00 | 0.00 | 85 | 1013.5 |
| 20260506031058 | 55 | 157 | 4.3 | 11.3 | 0.00 | 0.00 | 0.00 | 85 | 1013.6 |
| 20260506030556 | 55 | 209 | 5.2 | 10.4 | 0.00 | 0.00 | 0.00 | 85 | 1013.6 |
| 20260506030058 | 55 | 215 | 5.2 | 11.3 | 0.00 | 0.00 | 0.00 | 85 | 1013.6 |
| 20260506025557 | 55 | 203 | 5.2 | 11.3 | 0.00 | 0.00 | 0.00 | 85 | 1013.7 |
| 20260506025057 | 55 | 205 | 4.3 | 12.2 | 0.00 | 0.00 | 0.00 | 85 | 1013.6 |
| 20260506024559 | 55 | 213 | 4.3 | 12.2 | 0.00 | 0.00 | 0.00 | 85 | 1013.5 |
| 20260506024059 | 55 | 208 | 6.1 | 12.2 | 0.00 | 0.00 | 0.00 | 84 | 1013.6 |
| 20260506023558 | 55 | 181 | 5.2 | 14.8 | 0.00 | 0.00 | 0.00 | 84 | 1013.5 |
| 20260506023105 | 55 | 196 | 6.1 | 14.8 | 0.00 | 0.00 | 0.00 | 84 | 1013.6 |
| 20260506022558 | 55 | 188 | 5.2 | 12.2 | 0.00 | 0.00 | 0.00 | 84 | 1013.5 |
| 20260506022058 | 55 | 195 | 5.2 | 12.2 | 0.00 | 0.00 | 0.00 | 84 | 1013.5 |
| 20260506021557 | 55 | 202 | 6.1 | 13.9 | 0.00 | 0.00 | 0.00 | 84 | 1013.4 |
| 20260506021100 | 55 | 200 | 7.0 | 13.9 | 0.00 | 0.00 | 0.00 | 84 | 1013.4 |
| 20260506020557 | 55 | 184 | 7.0 | 13.0 | 0.00 | 0.00 | 0.00 | 84 | 1013.4 |
| 20260506020057 | 55 | 190 | 6.1 | 14.8 | 0.00 | 0.00 | 0.00 | 83 | 1013.3 |
| 20260506015558 | 55 | 172 | 7.8 | 14.8 | 0.00 | 0.00 | 0.00 | 83 | 1013.3 |
| 20260506015102 | 56 | 208 | 7.8 | 14.8 | 0.00 | 0.00 | 0.00 | 83 | 1013.2 |
| 20260506014557 | 56 | 178 | 8.7 | 20.0 | 0.00 | 0.00 | 0.00 | 82 | 1013.1 |
| 20260506014057 | 56 | 179 | 10.4 | 20.0 | 0.00 | 0.00 | 0.00 | 82 | 1013.1 |
| 20260506013558 | 56 | 198 | 12.2 | 20.0 | 0.00 | 0.00 | 0.00 | 82 | 1013.0 |
| 20260506013109 | 56 | 184 | 11.3 | 19.1 | 0.00 | 0.00 | 0.00 | 82 | 1012.9 |
| 20260506012559 | 56 | 179 | 9.6 | 20.9 | 0.00 | 0.00 | 0.00 | 82 | 1012.9 |
| 20260506012102 | 56 | 173 | 11.3 | 20.9 | 0.00 | 0.00 | 0.00 | 81 | 1012.9 |
| 20260506011600 | 56 | 176 | 13.0 | 20.9 | 0.00 | 0.00 | 0.00 | 81 | 1012.9 |
| 20260506011059 | 56 | 184 | 12.2 | 20.9 | 0.00 | 0.00 | 0.00 | 81 | 1012.7 |
| 20260506010559 | 56 | 161 | 12.2 | 20.9 | 0.00 | 0.00 | 0.00 | 81 | 1012.6 |
| 20260506010119 | 56 | 159 | 12.2 | 20.9 | 0.00 | 0.00 | 0.00 | 81 | 1012.5 |
| 20260506005558 | 56 | 182 | 11.3 | 20.9 | 0.00 | 0.00 | 0.00 | 81 | 1012.5 |
| 20260506005059 | 56 | 155 | 13.0 | 20.9 | 0.00 | 0.00 | 0.00 | 81 | 1012.4 |
| 20260506004602 | 56 | 192 | 13.0 | 20.9 | 0.00 | 0.00 | 0.00 | 80 | 1012.3 |
| 20260506004058 | 56 | 200 | 11.3 | 21.7 | 0.00 | 0.00 | 0.00 | 81 | 1012.2 |
| 20260506003558 | 56 | 184 | 11.3 | 21.7 | 0.00 | 0.00 | 0.00 | 80 | 1012.3 |
| 20260506003126 | 56 | 161 | 12.2 | 20.9 | 0.00 | 0.00 | 0.00 | 80 | 1012.2 |
| 20260506002557 | 56 | 181 | 13.0 | 21.7 | 0.00 | 0.00 | 0.00 | 80 | 1012.1 |
| 20260506002058 | 56 | 144 | 11.3 | 21.7 | 0.00 | 0.00 | 0.00 | 80 | 1012.0 |
| 20260506001615 | 56 | 165 | 13.0 | 21.7 | 0.00 | 0.00 | 0.00 | 79 | 1012.0 |
| 20260506001058 | 56 | 176 | 12.2 | 20.0 | 0.00 | 0.00 | 0.00 | 79 | 1012.1 |
| 20260506000559 | 56 | 165 | 10.4 | 19.1 | 0.00 | 0.00 | 0.00 | 80 | 1012.0 |
| 20260505235558 | 56 | 171 | 13.0 | 21.7 | 0.00 | 0.00 | 0.00 | 79 | 1011.8 |
| 20260505235057 | 56 | 175 | 13.0 | 21.7 | 0.00 | 0.00 | 0.00 | 79 | 1011.7 |
| 20260505234558 | 56 | 166 | 14.8 | 21.7 | 0.00 | 0.00 | 0.00 | 79 | 1011.5 |
| 20260505234100 | 56 | 194 | 13.9 | 22.6 | 0.00 | 0.00 | 0.00 | 79 | 1011.5 |
| 20260505233557 | 56 | 183 | 15.6 | 22.6 | 0.00 | 0.00 | 0.00 | 79 | 1011.4 |
| 20260505233123 | 56 | 176 | 14.8 | 21.7 | 0.00 | 0.00 | 0.00 | 79 | 1011.4 |
| 20260505232556 | 56 | 163 | 13.0 | 24.3 | 0.00 | 0.00 | 0.00 | 79 | 1011.2 |
| 20260505232056 | 56 | 172 | 13.9 | 24.3 | 0.00 | 0.00 | 0.00 | 79 | 1011.2 |
| 20260505231558 | 56 | 154 | 14.8 | 24.3 | 0.00 | 0.00 | 0.00 | 80 | 1011.1 |
| 20260505231055 | 56 | 192 | 13.0 | 24.3 | 0.00 | 0.00 | 0.00 | 80 | 1011.1 |
| 20260505230555 | 56 | 165 | 13.0 | 23.5 | 0.00 | 0.00 | 0.00 | 80 | 1011.1 |
| 20260505230059 | 56 | 194 | 13.9 | 23.5 | 0.00 | 0.00 | 0.00 | 80 | 1011.0 |
| 20260505225557 | 56 | 167 | 12.2 | 21.7 | 0.00 | 0.00 | 0.00 | 80 | 1011.1 |
| 20260505225057 | 56 | 160 | 13.9 | 21.7 | 0.00 | 0.00 | 0.00 | 80 | 1011.2 |
| 20260505224558 | 56 | 167 | 13.9 | 21.7 | 0.00 | 0.00 | 0.00 | 80 | 1011.1 |
| 20260505224056 | 56 | 194 | 11.3 | 22.6 | 0.00 | 0.00 | 0.00 | 80 | 1011.1 |
| 20260505223556 | 56 | 164 | 13.9 | 22.6 | 0.00 | 0.00 | 0.00 | 80 | 1011.0 |
| 20260505223058 | 56 | 156 | 13.0 | 23.5 | 0.00 | 0.00 | 0.00 | 80 | 1011.0 |
| 20260505222556 | 56 | 154 | 14.8 | 23.5 | 0.00 | 0.00 | 0.00 | 80 | 1011.0 |
| 20260505222056 | 56 | 204 | 13.0 | 21.7 | 0.00 | 0.00 | 0.00 | 80 | 1011.0 |
| 20260505221600 | 57 | 170 | 13.0 | 24.3 | 0.00 | 0.00 | 0.00 | 79 | 1011.0 |
| 20260505221056 | 57 | 185 | 13.0 | 24.3 | 0.00 | 0.00 | 0.00 | 80 | 1010.9 |
| 20260505220557 | 57 | 158 | 14.8 | 26.1 | 0.00 | 0.00 | 0.00 | 80 | 1010.9 |
| 20260505220100 | 57 | 164 | 14.8 | 26.1 | 0.00 | 0.00 | 0.00 | 80 | 1010.9 |
| 20260505215600 | 57 | 154 | 13.0 | 20.9 | 0.00 | 0.00 | 0.00 | 80 | 1010.9 |
| 20260505215056 | 57 | 191 | 11.3 | 25.2 | 0.00 | 0.00 | 0.00 | 80 | 1010.9 |
| 20260505214624 | 57 | 174 | 13.9 | 25.2 | 0.00 | 0.00 | 0.00 | 80 | 1010.8 |
| 20260505214056 | 57 | 195 | 13.9 | 20.9 | 0.00 | 0.00 | 0.00 | 80 | 1010.8 |
| 20260505213556 | 56 | 168 | 13.0 | 20.9 | 0.00 | 0.00 | 0.00 | 80 | 1010.8 |
| 20260505213102 | 56 | 161 | 13.0 | 24.3 | 0.00 | 0.00 | 0.00 | 80 | 1010.6 |
| 20260505212556 | 56 | 141 | 13.0 | 24.3 | 0.00 | 0.00 | 0.00 | 80 | 1010.6 |
| 20260505212058 | 56 | 151 | 12.2 | 24.3 | 0.00 | 0.00 | 0.00 | 79 | 1010.7 |
| 20260505211558 | 56 | 169 | 13.0 | 22.6 | 0.00 | 0.00 | 0.00 | 80 | 1010.8 |
| 20260505211057 | 56 | 178 | 14.8 | 21.7 | 0.00 | 0.00 | 0.00 | 80 | 1010.7 |
| 20260505210557 | 56 | 172 | 11.3 | 20.9 | 0.00 | 0.00 | 0.00 | 79 | 1010.7 |
| 20260505210101 | 57 | 178 | 7.8 | 20.9 | 0.00 | 0.00 | 0.00 | 80 | 1010.8 |
| 20260505205556 | 57 | 167 | 8.7 | 17.4 | 0.00 | 0.00 | 0.00 | 79 | 1010.7 |
| 20260505205057 | 57 | 160 | 9.6 | 19.1 | 0.00 | 0.00 | 0.00 | 79 | 1010.7 |
| 20260505204603 | 57 | 172 | 11.3 | 20.0 | 0.00 | 0.00 | 0.00 | 80 | 1010.7 |
| 20260505204056 | 57 | 177 | 11.3 | 20.0 | 0.00 | 0.00 | 0.00 | 80 | 1010.8 |
| 20260505203558 | 57 | 192 | 9.6 | 18.2 | 0.00 | 0.00 | 0.00 | 79 | 1010.8 |
| 20260505203103 | 57 | 187 | 11.3 | 18.2 | 0.00 | 0.00 | 0.00 | 80 | 1010.8 |
| 20260505202558 | 57 | 161 | 10.4 | 17.4 | 0.00 | 0.00 | 0.00 | 78 | 1010.8 |
| 20260505202058 | 57 | 180 | 9.6 | 17.4 | 0.00 | 0.00 | 0.00 | 79 | 1010.9 |
| 20260505201610 | 57 | 204 | 8.7 | 15.6 | 0.00 | 0.00 | 0.00 | 80 | 1010.8 |
| 20260505201057 | 57 | 181 | 10.4 | 15.6 | 0.00 | 0.00 | 0.00 | 79 | 1010.8 |
| 20260505200558 | 57 | 177 | 8.7 | 19.1 | 0.00 | 0.00 | 0.00 | 81 | 1011.0 |
| 20260505195557 | 56 | 159 | 10.4 | 19.1 | 0.00 | 0.00 | 0.00 | 81 | 1011.3 |
| 20260505195057 | 56 | 158 | 9.6 | 17.4 | 0.00 | 0.00 | 0.00 | 81 | 1011.4 |
| 20260505194558 | 56 | 180 | 10.4 | 17.4 | 0.00 | 0.00 | 0.00 | 81 | 1011.4 |
| 20260505194058 | 57 | 190 | 8.7 | 19.1 | 0.00 | 0.00 | 0.00 | 80 | 1011.5 |
| 20260505193558 | 56 | 171 | 12.2 | 19.1 | 0.00 | 0.00 | 0.00 | 80 | 1011.6 |
| 20260505193103 | 57 | 164 | 11.3 | 17.4 | 0.00 | 0.00 | 0.00 | 79 | 1011.6 |
| 20260505192558 | 57 | 192 | 13.0 | 20.0 | 0.00 | 0.00 | 0.00 | 81 | 1011.8 |
| 20260505192100 | 57 | 165 | 12.2 | 20.0 | 0.00 | 0.00 | 0.00 | 80 | 1011.8 |
| 20260505191606 | 57 | 150 | 11.3 | 19.1 | 0.00 | 0.00 | 0.00 | 80 | 1011.9 |
| 20260505191101 | 57 | 187 | 8.7 | 19.1 | 0.00 | 0.00 | 0.00 | 80 | 1012.1 |
| 20260505190558 | 57 | 191 | 8.7 | 16.5 | 0.00 | 0.00 | 0.00 | 81 | 1012.1 |
| 20260505185557 | 56 | 168 | 12.2 | 20.9 | 0.00 | 0.00 | 0.00 | 81 | 1012.3 |
| 20260505185058 | 56 | 189 | 12.2 | 20.9 | 0.00 | 0.00 | 0.00 | 81 | 1012.4 |
| 20260505184603 | 57 | 154 | 10.4 | 17.4 | 0.00 | 0.00 | 0.00 | 80 | 1012.3 |
| 20260505184058 | 57 | 199 | 10.4 | 16.5 | 0.00 | 0.00 | 0.00 | 81 | 1012.4 |
| 20260505183557 | 57 | 194 | 8.7 | 17.4 | 0.00 | 0.00 | 0.00 | 82 | 1012.5 |
| 20260505183124 | 56 | 159 | 10.4 | 20.0 | 0.00 | 0.00 | 0.00 | 83 | 1012.5 |